Temperature
2 2 2 2 3 3 3 4 6 6 5 5 5 4 3 2 2 1 1 2 2 2 3 3 3 4 4 4 5 5 5 5 5 5 5 5 5 5 5 5 5 5 5 5
2 2 2 2 2 2 3 3 4 4 4 4 3 2 2 1 1 1 1 1 1 2 2 3 3 3 3 4 4 4 4 4 4 4 4 4 4 4 4 4 4 4 4 4
3 2 2 2 2 2 2 2 3 4 3 3 2 2 1 1 0 0 -0 0 1 1 2 2 2 2 3 3 3 3 3 4 4 4 4 4 4 4 4 4 4 4 4 3
2 2 2 3 1 1 1 1 1 1 2 2 1 0 0 0 -0 -0 -0 -0 0 1 1 1 2 2 2 2 2 3 3 3 3 3 3 3 3 3 3 3 3 3 3 3
1 2 3 2 0 -1 -0 1 1 1 1 0 -0 -0 -0 0 -0 -0 -1 -0 -0 0 1 1 1 1 2 2 2 2 2 2 2 2 2 2 2 2 2 2 2 2 2 2
1 2 3 2 -1 -2 -1 1 0 -0 -0 -0 -0 2 1 -1 -1 -1 -1 -1 -0 0 0 1 1 1 1 1 1 1 1 1 2 2 2 2 2 2 2 2 1 1 1 1
0 1 2 -0 -2 -2 1 2 -1 -1 -1 -1 -0 0 -1 -1 -2 -2 -1 -1 -1 -0 -0 -0 -0 -0 0 0 0 1 1 1 1 1 1 1 1 1 1 1 1 0 1 1
-1 0 1 -2 -2 -1 -0 -2 -2 -2 -2 -2 -2 -2 -2 -2 -2 -2 -2 -2 -1 -1 -1 -1 -1 -1 -0 -0 -0 -0 0 0 0 0 0 0 0 0 0 0 0 -0 -0 -0
-1 -0 -2 -3 -3 -3 -3 -3 -3 -3 -3 -3 -3 -3 -3 -3 -3 -3 -3 -2 -2 -2 -1 -1 -1 -1 -1 -1 -1 -1 -0 -0 -0 -0 -0 -0 -0 -0 -0 -1 -1 -1 -1 -1
-3 -2 -3 -4 -4 -3 -3 -3 -3 -3 -3 -3 -3 -3 -4 -4 -4 -3 -3 -3 -2 -2 -2 -2 -2 -2 -1 -1 -1 -1 -1 -1 -1 -1 -1 -1 -1 -1 -1 -1 -1 -1 -1 -1
-4 -3 -4 -3 -4 -3 -3 -3 -3 -3 -3 -3 -4 -4 -4 -4 -4 -3 -3 -3 -3 -2 -2 -2 -2 -2 -2 -2 -2 -2 -2 -2 -2 -2 -2 -2 -2 -2 -2 -2 -2 -2 -2 -2
-1 -2 -3 -3 -3 -3 -3 -3 -3 -3 -4 -4 -4 -4 -4 -4 -4 -4 -3 -3 -3 -3 -3 -3 -3 -3 -2 -3 -3 -3 -2 -2 -2 -2 -2 -3 -2 -3 -2 -2 -2 -2 -2 -2
-3 -4 -4 -4 -3 -3 -4 -4 -4 -4 -4 -4 -4 -4 -4 -4 -4 -4 -3 -3 -3 -3 -3 -3 -3 -3 -3 -3 -3 -3 -3 -3 -3 -3 -3 -3 -3 -3 -3 -3 -3 -3 -3 -3
-4 -4 -5 -4 -4 -4 -4 -4 -4 -4 -4 -4 -4 -4 -4 -4 -4 -4 -4 -4 -4 -3 -4 -3 -3 -3 -3 -3 -3 -4 -3 -3 -3 -3 -3 -3 -3 -3 -3 -3 -3 -3 -3 -3
-5 -5 -5 -4 -4 -4 -4 -4 -4 -4 -4 -4 -4 -4 -4 -4 -4 -4 -4 -4 -4 -4 -4 -4 -4 -4 -4 -4 -4 -4 -4 -4 -4 -4 -4 -4 -4 -4 -4 -4 -4 -4 -4 -4
-5 -5 -5 -5 -5 -5 -5 -5 -5 -5 -5 -5 -5 -4 -4 -4 -4 -4 -4 -4 -4 -4 -4 -4 -4 -4 -4 -4 -4 -4 -4 -4 -4 -4 -4 -4 -4 -4 -4 -4 -4 -4 -4 -4
-6 -6 -6 -6 -5 -5 -5 -5 -5 -5 -5 -5 -5 -5 -5 -5 -5 -5 -5 -5 -5 -5 -5 -4 -4 -4 -4 -5 -5 -5 -5 -5 -4 -4 -4 -4 -4 -4 -5 -5 -4 -4 -5 -5
-5 -5 -5 -5 -5 -5 -5 -5 -5 -5 -5 -5 -5 -5 -5 -5 -5 -5 -5 -5 -5 -5 -5 -5 -5 -5 -5 -5 -5 -5 -5 -5 -5 -5 -5 -5 -5 -5 -5 -5 -5 -5 -5 -5
-5 -5 -5 -5 -5 -5 -5 -5 -5 -5 -5 -5 -5 -5 -5 -5 -5 -5 -5 -5 -5 -5 -5 -5 -5 -5 -5 -5 -5 -5 -5 -5 -5 -5 -5 -5 -5 -5 -5 -5 -5 -5 -5 -5
-5 -5 -5 -5 -5 -5 -5 -5 -5 -5 -5 -5 -6 -6 -6 -6 -6 -6 -6 -6 -6 -5 -5 -6 -6 -6 -6 -6 -6 -6 -6 -6 -6 -6 -6 -6 -6 -6 -6 -6 -6 -6 -6 -6
-5 -5 -5 -5 -5 -5 -5 -5 -6 -6 -6 -6 -6 -6 -6 -6 -6 -6 -6 -6 -6 -6 -6 -6 -6 -6 -6 -6 -6 -6 -6 -6 -6 -6 -6 -6 -6 -6 -6 -6 -6 -6 -6 -6
-5 -5 -5 -5 -5 -6 -6 -6 -6 -6 -6 -6 -6 -6 -6 -6 -6 -6 -6 -6 -6 -6 -6 -6 -6 -6 -6 -6 -6 -6 -6 -7 -7 -7 -7 -7 -6 -6 -6 -6 -7 -7 -6 -6
-5 -5 -5 -6 -6 -6 -6 -6 -6 -6 -6 -6 -6 -7 -7 -7 -7 -7 -7 -6 -7 -7 -7 -7 -7 -7 -7 -7 -7 -7 -7 -7 -7 -7 -7 -7 -7 -7 -7 -7 -7 -7 -7 -7
-5 -6 -6 -6 -6 -6 -6 -6 -6 -6 -7 -7 -7 -7 -7 -7 -7 -7 -7 -7 -7 -7 -7 -7 -7 -7 -7 -7 -7 -7 -7 -7 -7 -7 -7 -7 -7 -7 -7 -7 -7 -7 -7 -7
-6 -6 -6 -6 -6 -6 -6 -6 -7 -7 -7 -7 -7 -7 -7 -7 -7 -7 -7 -7 -7 -7 -7 -7 -7 -7 -7 -7 -7 -7 -8 -8 -8 -8 -8 -8 -7 -7 -7 -7 -7 -7 -7 -7
-6 -6 -6 -6 -6 -6 -7 -7 -7 -7 -7 -7 -7 -7 -8 -8 -8 -8 -8 -8 -8 -8 -7 -8 -8 -8 -8 -8 -8 -8 -8 -8 -8 -8 -8 -8 -8 -8 -8 -8 -7 -7 -7 -7
-6 -6 -6 -6 -7 -7 -7 -7 -7 -7 -7 -8 -8 -8 -8 -8 -8 -8 -8 -8 -8 -8 -8 -8 -8 -8 -8 -8 -8 -8 -8 -8 -8 -8 -8 -8 -8 -8 -8 -8 -8 -7 -7 -7
Wind_Speed
2 2 2 3 4 5 6 6 7 6 7 7 5 4 3 3 2 2 2 3 3 2 2 2 1 1 1 2 3 3 4 4 4 4 4 4 4 4 4 4 4 3 3 3
2 1 1 3 5 6 6 7 7 6 8 7 5 3 3 3 3 2 3 3 4 4 3 2 2 2 1 2 2 3 4 4 4 4 4 4 3 3 4 4 3 3 3 3
2 1 1 4 5 6 5 5 5 7 7 4 4 4 4 4 3 3 3 4 4 4 3 3 2 2 2 2 2 3 4 4 4 4 4 3 3 3 3 3 3 3 3 3
1 0 4 1 1 2 5 5 5 6 5 4 5 4 4 3 3 4 4 4 4 3 3 3 3 2 2 1 2 3 3 3 3 4 3 3 4 4 3 3 3 3 3 2
1 2 5 3 1 1 3 5 5 6 6 5 3 3 3 2 3 4 4 4 3 3 3 3 3 2 1 1 1 3 3 3 3 3 3 3 3 4 3 3 2 2 2 2
2 3 4 1 1 1 2 4 2 3 5 4 3 3 3 2 3 2 3 2 3 2 2 2 2 1 0 1 2 2 3 3 3 3 3 3 3 3 2 3 3 2 2 2
4 4 5 1 1 2 3 2 3 3 4 4 4 4 3 2 2 2 2 2 3 2 2 2 2 1 0 1 1 2 2 2 2 3 3 3 2 2 2 3 3 2 2 1
4 5 5 1 3 4 3 3 2 3 3 3 4 3 2 2 2 2 2 2 2 2 2 3 2 1 0 1 1 1 2 2 2 2 2 2 3 2 2 3 3 2 2 1
5 4 1 3 3 3 3 3 3 3 3 3 3 3 3 2 2 2 2 2 2 2 3 3 2 1 1 1 1 1 2 2 2 2 2 2 3 3 3 3 2 2 2 2
5 7 6 5 5 5 5 5 6 5 4 3 4 3 3 2 2 2 2 2 2 2 2 3 2 2 1 1 1 1 2 2 2 2 2 2 2 2 2 3 2 2 2 1
6 7 6 6 6 6 6 5 5 5 4 4 3 3 3 2 2 2 2 2 2 1 2 2 2 2 2 1 0 1 1 1 2 2 2 2 1 1 2 2 2 2 2 2
6 5 5 4 4 5 5 5 5 4 4 3 3 3 3 2 2 2 2 2 2 2 2 2 2 2 2 1 0 1 1 1 1 1 2 2 2 1 1 1 1 1 2 2
6 4 5 6 5 4 4 4 4 4 4 4 3 3 3 2 2 2 2 2 2 2 2 1 1 2 2 1 0 1 1 1 1 1 2 2 2 2 2 1 1 0 1 1
7 5 6 6 5 4 4 3 2 2 3 3 3 3 3 2 2 2 2 2 2 2 2 1 1 1 2 1 0 0 1 1 1 2 2 2 2 2 2 2 1 0 0 1
8 8 6 4 4 3 2 2 1 2 2 2 2 2 3 3 2 2 2 2 1 1 1 1 1 2 2 1 0 1 1 1 1 1 2 2 2 2 2 1 1 0 0 1
5 5 5 5 5 4 3 3 3 3 3 2 3 3 3 2 2 2 2 2 2 2 2 1 2 2 2 0 0 0 0 0 1 1 1 2 2 2 2 1 1 0 0 1
5 6 6 6 5 5 4 4 4 4 4 4 3 3 2 2 2 2 2 2 2 2 2 2 2 2 1 0 1 1 1 1 1 1 1 1 2 2 2 1 1 1 1 1
8 7 7 6 6 5 5 4 4 4 4 4 3 3 3 3 3 3 2 2 1 1 2 2 2 1 1 0 1 1 1 1 1 1 1 1 1 1 1 1 1 1 1 1
6 6 6 6 6 5 5 4 4 4 4 4 3 4 4 3 3 3 2 2 2 2 2 2 2 1 1 1 1 1 1 1 1 1 1 2 1 1 1 1 1 1 1 1
5 5 5 5 5 5 5 4 4 4 4 4 4 3 3 3 3 3 3 3 3 2 2 2 2 1 1 1 2 1 2 2 2 2 2 2 2 2 1 1 1 2 2 2
5 5 5 5 5 5 5 5 4 4 4 4 4 4 4 3 3 2 3 3 3 2 2 2 2 2 2 2 2 2 2 2 2 2 2 2 2 2 2 2 2 2 2 2
5 5 5 5 4 4 4 4 4 4 4 4 4 4 3 3 3 3 3 3 3 2 2 2 2 2 2 2 2 2 2 3 2 2 2 2 2 2 2 2 2 2 2 2
5 5 5 5 5 4 3 4 4 4 5 5 4 5 4 4 3 3 3 2 2 3 2 2 3 4 4 3 2 3 3 3 3 3 2 2 2 2 2 2 2 2 2 2
5 5 5 4 4 4 4 4 4 4 4 4 4 4 4 3 3 3 3 3 3 3 3 3 4 4 4 3 3 3 3 3 3 3 3 3 3 2 2 2 3 3 3 3
5 5 5 5 5 5 5 4 3 3 3 3 4 4 4 4 4 3 3 3 4 4 3 4 5 4 3 3 3 3 3 3 3 3 3 3 3 3 3 3 3 3 3 3
5 5 5 5 5 4 4 4 3 3 3 3 3 3 3 3 3 3 3 3 3 4 3 3 3 3 3 3 3 3 3 3 4 3 3 3 3 3 3 3 4 3 3 4
4 4 3 4 4 4 4 4 4 4 4 4 3 3 3 3 3 3 3 3 2 2 3 2 3 3 3 3 3 3 3 3 3 3 3 3 3 3 3 4 3 4 4 4
Wind_Direction
285 297 243 246 250 228 218 232 234 234 243 261 278 277 281 283 294 313 322 327 326 319 316 307 293 245 221 218 207 192 183 180 182 178 173 169 168 169 171 178 183 182 183 189
263 227 233 280 267 238 233 241 241 257 272 287 295 283 277 275 278 285 303 313 318 322 317 305 289 268 247 237 225 200 190 186 176 174 173 168 167 170 171 176 178 180 187 192
255 300 291 265 259 235 235 239 236 244 263 294 293 270 261 260 258 268 289 302 307 308 305 300 295 281 259 246 231 210 194 186 178 176 177 173 169 171 177 181 180 186 194 198
282 317 238 267 34 251 232 252 255 265 273 273 279 292 284 263 260 275 288 296 299 304 308 308 307 297 273 241 217 199 187 184 183 183 183 179 176 179 181 183 186 192 198 202
214 248 273 276 256 248 243 267 262 253 264 275 303 317 291 280 276 272 281 291 297 303 308 311 313 304 261 217 202 185 184 188 193 190 186 186 185 187 185 178 181 193 197 200
206 232 247 301 74 329 250 265 295 257 251 250 241 252 279 308 310 299 299 309 317 322 326 328 330 321 232 215 206 202 196 193 194 193 191 189 191 190 183 178 182 189 197 210
219 235 262 316 317 202 208 290 335 272 251 238 244 277 302 307 310 315 320 328 336 339 337 331 331 327 236 234 242 233 203 184 185 189 192 189 186 183 171 170 171 183 187 208
200 219 247 129 149 202 272 333 307 289 273 268 280 298 296 292 302 320 330 336 340 344 338 333 331 310 263 286 285 227 178 171 173 184 188 177 169 172 170 166 170 185 184 193
212 227 329 182 219 272 301 283 287 288 285 274 278 281 278 288 303 315 321 327 332 338 336 337 336 318 283 303 294 186 161 166 166 168 176 174 172 173 175 177 178 188 194 201
247 256 262 253 259 275 271 271 282 280 275 266 267 267 276 285 298 308 314 321 331 342 345 339 342 341 326 313 280 166 156 161 161 159 162 166 173 182 181 184 185 191 200 217
246 266 279 255 250 263 272 275 277 276 269 254 245 250 253 270 285 297 309 321 327 330 331 331 340 350 346 336 178 162 159 163 157 160 163 160 159 176 194 209 205 200 212 230
236 235 233 255 257 260 254 258 264 264 273 264 235 235 241 253 267 276 293 312 321 323 322 323 341 351 349 349 165 161 154 162 167 164 164 163 151 127 96 168 154 222 252 267
248 257 254 265 272 258 252 264 264 252 247 248 236 224 226 239 257 266 281 296 298 298 300 307 333 340 339 339 356 165 187 195 187 179 175 174 170 161 153 130 143 176 262 279
241 247 255 253 257 261 260 263 261 252 244 231 226 218 215 224 238 254 267 276 283 289 294 296 312 319 322 322 164 164 189 188 189 186 184 183 182 182 182 183 186 210 357 320
238 237 243 253 262 259 252 235 232 250 246 238 219 212 209 213 230 253 270 276 269 271 272 279 300 312 325 331 162 175 183 188 179 174 180 183 178 176 173 172 177 198 12 7
230 230 234 238 244 247 237 226 232 250 249 233 228 225 219 213 224 245 256 245 233 251 253 259 278 295 316 330 172 184 173 146 170 165 168 163 159 160 161 164 172 179 350 340
204 220 221 227 232 235 236 236 236 242 242 236 231 224 212 204 216 237 257 260 246 248 250 251 268 291 296 238 190 179 162 159 151 158 161 162 168 173 172 178 196 218 282 316
221 224 220 220 224 230 240 243 241 241 242 239 226 215 214 216 229 245 256 260 248 254 261 254 258 269 268 248 202 191 182 185 184 171 170 171 176 181 175 186 205 230 276 307
221 222 223 225 225 225 234 243 246 245 244 230 219 223 230 234 235 243 249 240 233 254 276 258 234 240 244 231 207 196 194 194 193 185 181 176 178 178 183 199 219 243 262 284
223 222 222 226 225 223 231 240 241 240 236 222 218 225 235 241 238 237 239 246 256 258 250 243 239 244 241 224 220 208 203 203 203 198 193 196 191 194 205 216 229 246 259 271
219 218 218 223 230 234 233 233 230 233 234 218 214 222 232 244 242 232 229 251 273 258 240 233 241 242 233 222 215 211 208 207 208 209 206 206 206 210 216 224 236 247 256 263
217 217 220 222 226 239 242 231 226 226 227 225 223 223 227 236 238 242 246 251 261 249 246 244 243 235 229 227 223 215 214 215 216 215 213 212 215 219 223 229 239 249 256 260
219 219 220 220 222 231 242 236 227 221 221 224 223 222 227 233 232 232 256 258 252 247 246 244 242 236 230 226 224 219 217 217 219 220 220 221 226 228 232 239 247 252 257 261
218 218 219 216 204 210 228 238 230 224 223 228 228 224 224 229 239 242 251 253 246 248 249 241 237 238 236 230 220 219 219 219 222 224 225 227 232 235 238 242 248 253 259 263
217 214 209 202 208 221 227 226 220 222 225 229 233 232 229 229 232 239 241 242 242 248 250 243 241 240 233 224 219 219 220 221 221 221 222 225 231 237 241 243 247 254 256 257
217 219 220 222 224 226 221 217 222 225 223 230 240 237 231 229 226 230 234 237 238 243 246 245 241 238 230 226 225 223 222 227 231 228 227 230 234 237 241 246 251 251 253 256
220 222 222 229 230 222 216 215 218 223 223 224 236 238 230 225 223 225 227 230 235 239 239 239 237 233 229 226 225 223 222 222 224 228 230 233 235 237 240 243 247 250 253 255
Height
1494 1493 1493 1493 1492 1491 1490 1484 1478 1475 1478 1479 1481 1483 1484 1484 1484 1484 1484 1484 1484 1484 1484 1484 1484 1485 1487 1488 1490 1491 1493 1495 1496 1498 1500 1501 1502 1503 1505 1506 1507 1508 1509 1509
1494 1494 1493 1493 1491 1490 1489 1488 1484 1482 1482 1481 1483 1484 1483 1483 1483 1483 1482 1482 1482 1481 1482 1482 1482 1483 1484 1485 1487 1488 1490 1491 1493 1495 1496 1497 1498 1500 1501 1502 1503 1504 1505 1506
1488 1493 1491 1487 1489 1489 1488 1487 1484 1481 1481 1482 1482 1482 1482 1482 1482 1482 1481 1480 1480 1479 1479 1480 1480 1481 1482 1483 1484 1485 1486 1488 1489 1491 1492 1493 1495 1496 1497 1498 1500 1501 1502 1502
1492 1492 1489 1485 1490 1489 1488 1486 1486 1484 1483 1483 1482 1482 1482 1482 1481 1480 1480 1479 1478 1478 1478 1478 1478 1479 1479 1480 1481 1482 1483 1484 1486 1487 1489 1490 1491 1493 1494 1495 1496 1497 1498 1499
1494 1488 1483 1486 1490 1491 1489 1485 1484 1483 1482 1483 1482 1481 1480 1480 1480 1479 1478 1478 1477 1477 1476 1476 1476 1477 1477 1477 1478 1479 1480 1481 1483 1484 1485 1487 1488 1489 1491 1492 1493 1494 1495 1495
1495 1487 1481 1481 1490 1491 1491 1483 1482 1482 1482 1482 1481 1478 1478 1478 1478 1477 1477 1476 1475 1475 1475 1475 1475 1475 1475 1475 1476 1477 1478 1479 1480 1482 1483 1484 1485 1486 1487 1489 1490 1491 1491 1492
1494 1489 1482 1488 1490 1490 1486 1479 1482 1481 1481 1481 1480 1478 1478 1476 1476 1476 1475 1475 1474 1474 1473 1473 1473 1473 1473 1473 1474 1475 1475 1476 1478 1479 1480 1481 1482 1483 1484 1485 1487 1488 1488 1489
1493 1489 1485 1488 1488 1487 1483 1482 1481 1480 1480 1479 1478 1477 1476 1475 1474 1474 1473 1473 1473 1472 1472 1472 1472 1471 1470 1471 1471 1472 1473 1474 1475 1476 1477 1478 1479 1480 1482 1483 1484 1484 1485 1485
1491 1486 1486 1486 1484 1483 1483 1481 1480 1479 1479 1478 1476 1475 1474 1473 1473 1472 1472 1472 1471 1471 1470 1470 1470 1470 1469 1469 1470 1470 1470 1471 1472 1473 1474 1475 1477 1478 1479 1480 1481 1481 1482 1482
1490 1484 1484 1483 1482 1481 1480 1479 1478 1477 1477 1476 1474 1473 1473 1472 1471 1471 1470 1470 1470 1469 1468 1468 1468 1468 1467 1467 1467 1467 1468 1468 1469 1470 1471 1473 1474 1475 1476 1477 1478 1478 1479 1479
1486 1482 1481 1479 1478 1478 1477 1477 1476 1475 1474 1473 1472 1472 1471 1470 1470 1469 1469 1469 1469 1468 1467 1467 1466 1466 1466 1466 1465 1465 1466 1466 1467 1468 1469 1470 1471 1473 1474 1474 1475 1476 1476 1477
1476 1476 1477 1476 1475 1475 1474 1474 1473 1472 1471 1471 1471 1469 1469 1469 1468 1468 1467 1468 1467 1467 1466 1466 1465 1465 1464 1464 1464 1464 1464 1464 1465 1466 1467 1468 1469 1470 1471 1472 1473 1473 1474 1475
1474 1473 1473 1473 1472 1472 1471 1471 1471 1470 1469 1468 1468 1468 1467 1467 1467 1466 1466 1466 1466 1465 1465 1465 1464 1464 1464 1464 1463 1462 1462 1463 1463 1464 1465 1466 1467 1468 1469 1470 1470 1471 1472 1472
1471 1471 1470 1469 1469 1469 1469 1468 1468 1467 1467 1466 1466 1466 1466 1465 1465 1465 1465 1464 1464 1464 1463 1463 1462 1462 1462 1462 1462 1461 1461 1461 1462 1462 1463 1464 1465 1466 1467 1467 1468 1468 1469 1470
1467 1467 1467 1466 1466 1466 1466 1466 1465 1465 1464 1464 1464 1464 1464 1463 1463 1463 1463 1463 1463 1462 1462 1462 1461 1461 1461 1461 1460 1460 1460 1460 1460 1461 1462 1462 1463 1464 1465 1465 1466 1466 1466 1467
1462 1463 1463 1463 1463 1463 1463 1463 1463 1462 1462 1462 1461 1461 1461 1461 1461 1461 1461 1461 1461 1460 1460 1460 1460 1460 1460 1459 1459 1459 1459 1459 1459 1459 1460 1461 1461 1462 1462 1463 1464 1464 1464 1464
1458 1458 1459 1459 1459 1459 1460 1460 1460 1459 1459 1459 1459 1459 1459 1458 1458 1459 1459 1459 1459 1459 1459 1458 1458 1458 1458 1458 1457 1457 1457 1457 1458 1458 1458 1459 1460 1460 1460 1461 1462 1462 1462 1463
1454 1455 1456 1456 1456 1456 1457 1457 1457 1457 1457 1457 1457 1456 1456 1456 1456 1456 1456 1457 1457 1457 1457 1457 1456 1456 1456 1456 1456 1456 1456 1456 1456 1456 1457 1457 1458 1458 1459 1459 1459 1460 1460 1460
1451 1452 1452 1453 1453 1454 1454 1454 1454 1454 1454 1454 1454 1454 1454 1454 1454 1454 1454 1454 1454 1454 1454 1454 1454 1454 1454 1454 1454 1454 1454 1454 1454 1454 1455 1455 1456 1456 1457 1457 1457 1458 1458 1458
1448 1449 1449 1450 1451 1451 1451 1451 1452 1452 1452 1452 1452 1452 1452 1452 1452 1452 1452 1452 1452 1452 1452 1452 1452 1452 1452 1452 1452 1452 1452 1452 1452 1452 1453 1453 1454 1454 1455 1455 1455 1455 1456 1455
1445 1446 1446 1447 1448 1448 1449 1449 1449 1449 1449 1449 1449 1449 1449 1449 1449 1449 1449 1449 1449 1449 1449 1449 1449 1449 1449 1449 1449 1449 1449 1450 1450 1450 1450 1451 1451 1452 1452 1453 1453 1453 1453 1453
1442 1443 1443 1444 1445 1445 1445 1446 1446 1446 1446 1446 1446 1446 1446 1446 1446 1446 1446 1447 1446 1446 1446 1446 1447 1447 1447 1447 1447 1447 1447 1447 1447 1448 1448 1449 1449 1450 1450 1450 1451 1451 1451 1451
1439 1440 1440 1441 1441 1442 1442 1442 1443 1443 1443 1443 1443 1443 1443 1443 1443 1443 1443 1444 1443 1443 1443 1443 1444 1444 1444 1444 1444 1444 1444 1445 1445 1445 1446 1446 1447 1447 1448 1448 1448 1448 1448 1448
1435 1436 1437 1438 1438 1438 1438 1439 1439 1439 1439 1439 1440 1440 1440 1440 1440 1440 1440 1440 1440 1440 1440 1440 1441 1441 1441 1441 1441 1441 1442 1442 1442 1443 1443 1444 1444 1445 1445 1445 1445 1445 1445 1445
1432 1433 1433 1434 1434 1434 1435 1435 1435 1436 1436 1436 1436 1436 1436 1437 1437 1437 1437 1437 1437 1437 1437 1437 1438 1438 1438 1438 1438 1438 1439 1439 1439 1440 1440 1441 1441 1442 1442 1442 1442 1443 1443 1442
1428 1429 1429 1430 1431 1431 1431 1431 1431 1432 1432 1432 1432 1433 1433 1433 1434 1434 1434 1434 1434 1434 1434 1434 1434 1435 1435 1435 1435 1436 1436 1436 1437 1437 1437 1438 1438 1439 1439 1440 1440 1440 1440 1440
1424 1425 1425 1426 1426 1427 1427 1427 1428 1428 1428 1429 1429 1429 1430 1430 1430 1430 1431 1431 1431 1431 1431 1431 1432 1432 1432 1432 1432 1433 1433 1433 1434 1434 1435 1435 1436 1436 1437 1437 1437 1437 1437 1437